User: anonymous
Location: Unspecified
(0.0000°N, 0.0000°E)
Time: 12:10:18
(UTC+00:00)
Language:

Tiangong 1 - Orbit

View from above orbital plane
View from above orbital plane
View from above satellite
View from above satellite

Ground track
Ground track

The orbit data is extracted from the following two-line orbital elements,

1 37820U 11053A   14242.17835007  .00033776  00000-0  32558-3 0  3394
2 37820 042.7700 225.9841 0003568 129.1910 347.9196 15.65852990167663
Epoch (UTC): 30 August 2014 04:16:49
Eccentricity: 0.0003568
inclination: 42.7700°
perigee height: 368 km
apogee height: 373 km
right ascension of ascending node: 225.9841°
argument of perigee: 129.1910°
revolutions per day: 15.65852990
mean anomaly at epoch: 347.9196°
orbit number at epoch: 16766

The dashed part of the orbit path shows where the satellite is in the earth's shadow,  

DLR